Showing default

ORBCOMM FM 38, 33060

Orbit data source: Space-Track

ORBCOMM FM 38, 33060 is a payload satellite owned by Orbcomm (US) in LEO that was launched on Thu, 19 Jun 2008 UTC via a KOSMOS 11K65M launch vehicle from the Kapustin Yar Missile And Space Complex (KYMTR). Payload-class satellites include a variety of spacecraft equipped with specific instruments for various scientific and technological missions. These include communications satellites like Starlink; space stations such as the ISS; scientific satellites like the Hubble; Earth observation satellites from companies like Planet Labs, Umbra, and HawkEye 360; GPS; miniature CubeSats for education and research; and military/defense satellites.

Loading next visibility...
Identifier
33060, 2008-031A
Orbit
LEO
Country
Flag of USUS / ORB
Related business
Manufacturer
OHB/POLK
Mission
Non-operational Commercial Communications
Bus & Motor
STERKH, Unknown motor
Mass
115 kg wet, 115 kg dry
Launch date (UTC)
2008-06-19 (18 years ago)
Launch vehicle
KOSMOS 11K65M
Launch site
Kapustin Yar Missile And Space Complex (KYMTR)
Object type
Payload
Rocket body
Debris
Shape & HBR
Box + 1 Ant, 0.8 m
Radar Cross Section
2.947 m², Large (>1 m²)

Expand to show TLE details & history
Last TLE update: 6 hours ago

TLE from 6 hours ago
0 ORBCOMM FM 38
1 33060U 08031A   26168.78422382  .00001154  00000-0  16679-3 0  9996
2 33060  48.4414  10.4383 0004707 182.1182 177.9715 14.83084457968980
Epoch: 2026-06-17T18:49Z
TLE epoch observation values (Epoch: 2026-06-17T18:49:16.938Z)
Latitude
-0°
Longitude
-177.91922°
Altitude
623.271 km
Speed
7.547 km/s
True Right ascension
00h 41m 45s
True Declination
0° 00' 00"
Sunlit
Object was in daylight at epoch
Visualization orbit readout
Latitude
Unknown
Longitude
Unknown
Altitude
Unknown
Speed
Unknown
Apparent Right ascension
Unknown
Apparent Declination
Unknown
Sunlit
N/A
Visualization observer readout
Local Sidereal Time
11:48:03
Azimuth
Unknown
Elevation
Unknown
Doppler factor
Unknown
Orbital elements
Apogee altitude
623.911 km
Perigee altitude
617.323 km
Semi-major axis
6,998.754 km
Eccentricity
0.00047
Inclination
48.4414°
RAAN
10.4383°
Arg. of periapsis
182.1182°
True anomaly
177.97341°
Mean anomaly
177.9715°
Eccentric anomaly
177.97245°
Mean motion
3.70691 °/min
Orbital period
97.12 mins
BSTAR
0.00016679
Loading maneuver chart data...
Computing Atmospheric mass density...
Loading historical data...
Loading historical data...
Loading historical data...
Loading historical data...
Loading historical data...
Loading historical data...
Loading historical data...

Documentation

Showing up to 5 results
|